Time,TemperatureF,DewpointF,PressureIn,WindDirection,WindDirectionDegrees,WindSpeedMPH,WindSpeedGustMPH,Humidity,HourlyPrecipIn,Conditions,Clouds,dailyrainin,SoftwareType,DateUTC
2013-11-05 00:13:00,57.0,-99.9,-100.00,SE,130,5.0,-999.0,-999,0.00,,,0.00,,2013-11-05 06:13:00,
2013-11-05 00:22:00,57.0,-99.9,-100.00,SE,130,5.0,-999.0,-999,0.00,,,0.00,,2013-11-05 06:22:00,
2013-11-05 00:42:00,56.0,-99.9,-100.00,SE,140,2.0,-999.0,-999,0.00,,,0.00,,2013-11-05 06:42:00,
2013-11-05 00:52:00,56.0,-99.9,-100.00,SE,140,2.0,-999.0,-999,0.00,,,0.00,,2013-11-05 06:52:00,
2013-11-05 01:11:00,56.0,-99.9,-100.00,ESE,121,5.0,-999.0,-999,0.00,,,0.00,,2013-11-05 07:11:00,
2013-11-05 01:22:00,56.0,-99.9,-100.00,ESE,121,5.0,-999.0,-999,0.00,,,0.00,,2013-11-05 07:22:00,
2013-11-05 01:43:00,56.0,-99.9,-100.00,SE,128,3.0,-999.0,-999,0.00,,,0.00,,2013-11-05 07:43:00,
2013-11-05 01:52:00,56.0,-99.9,-100.00,SE,128,3.0,-999.0,-999,0.00,,,0.00,,2013-11-05 07:52:00,
2013-11-05 02:12:00,56.0,-99.9,-100.00,SE,137,5.0,-999.0,-999,0.00,,,0.00,,2013-11-05 08:12:00,
2013-11-05 02:22:00,56.0,-99.9,-100.00,SE,137,5.0,-999.0,-999,0.00,,,0.00,,2013-11-05 08:22:00,
2013-11-05 02:42:00,56.0,-99.9,-100.00,ESE,121,3.0,-999.0,-999,0.00,,,0.00,,2013-11-05 08:42:00,
2013-11-05 02:52:00,56.0,-99.9,-100.00,ESE,121,3.0,-999.0,-999,0.00,,,0.00,,2013-11-05 08:52:00,
2013-11-05 03:12:00,56.0,-99.9,-100.00,SE,130,3.0,-999.0,-999,0.00,,,0.00,,2013-11-05 09:12:00,
2013-11-05 03:22:00,56.0,-99.9,-100.00,SE,130,3.0,-999.0,-999,0.00,,,0.00,,2013-11-05 09:22:00,
2013-11-05 03:43:00,55.0,-99.9,-100.00,SE,128,1.0,-999.0,-999,0.00,,,0.00,,2013-11-05 09:43:00,
2013-11-05 03:53:00,55.0,-99.9,-100.00,SE,128,1.0,-999.0,-999,0.00,,,0.00,,2013-11-05 09:53:00,
2013-11-05 04:13:00,54.0,-99.9,-100.00,SW,214,1.0,-999.0,-999,0.00,,,0.00,,2013-11-05 10:13:00,
2013-11-05 04:23:00,54.0,-99.9,-100.00,SW,214,1.0,-999.0,-999,0.00,,,0.00,,2013-11-05 10:23:00,
2013-11-05 04:43:00,54.0,-99.9,-100.00,SSW,213,1.0,-999.0,-999,0.00,,,0.00,,2013-11-05 10:43:00,
2013-11-05 04:53:00,54.0,-99.9,-100.00,SSW,213,1.0,-999.0,-999,0.00,,,0.00,,2013-11-05 10:53:00,
2013-11-05 05:13:00,55.0,-99.9,-100.00,ESE,122,3.0,-999.0,-999,0.00,,,0.00,,2013-11-05 11:13:00,
2013-11-05 05:22:00,55.0,-99.9,-100.00,ESE,122,3.0,-999.0,-999,0.00,,,0.00,,2013-11-05 11:22:00,
2013-11-05 05:42:00,55.0,-99.9,-100.00,SE,142,2.0,-999.0,-999,0.00,,,0.00,,2013-11-05 11:42:00,
2013-11-05 05:52:00,55.0,-99.9,-100.00,SE,142,2.0,-999.0,-999,0.00,,,0.00,,2013-11-05 11:52:00,
2013-11-05 06:12:00,55.0,-99.9,-100.00,ESE,122,4.0,-999.0,-999,0.00,,,0.00,,2013-11-05 12:12:00,
2013-11-05 06:22:00,55.0,-99.9,-100.00,ESE,122,4.0,-999.0,-999,0.00,,,0.00,,2013-11-05 12:22:00,
2013-11-05 06:42:00,54.0,-99.9,-100.00,SE,124,3.0,-999.0,-999,0.00,,,0.00,,2013-11-05 12:42:00,
2013-11-05 06:52:00,54.0,-99.9,-100.00,SE,124,3.0,-999.0,-999,0.00,,,0.00,,2013-11-05 12:52:00,
2013-11-05 07:11:00,54.0,-99.9,-100.00,SE,140,5.0,-999.0,-999,0.00,,,0.00,,2013-11-05 13:11:00,
2013-11-05 07:22:00,54.0,-99.9,-100.00,SE,140,5.0,-999.0,-999,0.00,,,0.00,,2013-11-05 13:22:00,
2013-11-05 07:42:00,54.0,-99.9,-100.00,SE,136,6.0,-999.0,-999,0.00,,,0.00,,2013-11-05 13:42:00,
2013-11-05 07:52:00,54.0,-99.9,-100.00,SE,136,6.0,-999.0,-999,0.00,,,0.00,,2013-11-05 13:52:00,
2013-11-05 08:12:00,55.0,-99.9,-100.00,SE,132,5.0,-999.0,-999,0.00,,,0.00,,2013-11-05 14:12:00,
2013-11-05 08:22:00,55.0,-99.9,-100.00,SE,132,5.0,-999.0,-999,0.00,,,0.00,,2013-11-05 14:22:00,
2013-11-05 08:42:00,55.0,-99.9,-100.00,SE,136,6.0,-999.0,-999,0.00,,,0.00,,2013-11-05 14:42:00,
2013-11-05 09:11:00,54.0,-99.9,-100.00,SE,132,7.0,-999.0,-999,0.01,,,0.01,,2013-11-05 15:11:00,
2013-11-05 09:22:00,54.0,-99.9,-100.00,SE,132,7.0,-999.0,-999,0.01,,,0.01,,2013-11-05 15:22:00,
2013-11-05 09:30:00,54.0,-99.9,-100.00,SE,130,6.0,-999.0,-999,0.04,,,0.05,,2013-11-05 15:30:00,
2013-11-05 09:43:00,53.0,-99.9,-100.00,SE,139,6.0,-999.0,-999,0.03,,,0.03,,2013-11-05 15:43:00,
2013-11-05 09:53:00,53.0,-99.9,-100.00,SE,139,6.0,-999.0,-999,0.03,,,0.03,,2013-11-05 15:53:00,
2013-11-05 10:13:00,54.0,-99.9,-100.00,SE,130,6.0,-999.0,-999,0.04,,,0.05,,2013-11-05 16:13:00,
2013-11-05 10:23:00,54.0,-99.9,-100.00,SE,130,6.0,-999.0,-999,0.04,,,0.05,,2013-11-05 16:23:00,
2013-11-05 10:53:00,54.0,-99.9,-100.00,SE,131,6.0,-999.0,-999,0.04,,,0.07,,2013-11-05 16:53:00,
2013-11-05 11:00:00,55.0,-99.9,-100.00,SE,129,6.0,-999.0,-999,0.05,,,0.12,,2013-11-05 17:00:00,
2013-11-05 11:12:00,55.0,-99.9,-100.00,SE,134,8.0,-999.0,-999,0.05,,,0.10,,2013-11-05 17:12:00,
2013-11-05 11:22:00,55.0,-99.9,-100.00,SE,134,8.0,-999.0,-999,0.05,,,0.10,,2013-11-05 17:22:00,
2013-11-05 11:30:00,55.0,-99.9,-100.00,SE,130,8.0,-999.0,-999,0.04,,,0.14,,2013-11-05 17:30:00,
2013-11-05 11:43:00,55.0,-99.9,-100.00,SE,129,6.0,-999.0,-999,0.05,,,0.12,,2013-11-05 17:43:00,
2013-11-05 11:53:00,55.0,-99.9,-100.00,SE,129,6.0,-999.0,-999,0.05,,,0.12,,2013-11-05 17:53:00,
2013-11-05 12:23:00,55.0,-99.9,-100.00,SE,130,8.0,-999.0,-999,0.04,,,0.14,,2013-11-05 18:23:00,
2013-11-05 12:52:00,56.0,-99.9,-100.00,SE,135,10.0,-999.0,-999,0.02,,,0.14,,2013-11-05 18:52:00,
2013-11-05 13:11:00,56.0,-99.9,-100.00,SE,136,10.0,-999.0,-999,0.00,,,0.14,,2013-11-05 19:11:00,
2013-11-05 13:22:00,56.0,-99.9,-100.00,SE,136,10.0,-999.0,-999,0.00,,,0.14,,2013-11-05 19:22:00,
2013-11-05 13:42:00,56.0,-99.9,-100.00,SE,135,11.0,-999.0,-999,0.00,,,0.14,,2013-11-05 19:42:00,
2013-11-05 13:52:00,56.0,-99.9,-100.00,SE,135,11.0,-999.0,-999,0.00,,,0.14,,2013-11-05 19:52:00,
2013-11-05 14:12:00,56.0,-99.9,-100.00,SE,132,10.0,-999.0,-999,0.00,,,0.14,,2013-11-05 20:12:00,
2013-11-05 14:22:00,56.0,-99.9,-100.00,SE,132,10.0,-999.0,-999,0.00,,,0.14,,2013-11-05 20:22:00,
2013-11-05 14:43:00,56.0,-99.9,-100.00,SE,129,11.0,-999.0,-999,0.00,,,0.14,,2013-11-05 20:43:00,
2013-11-05 14:53:00,56.0,-99.9,-100.00,SE,129,11.0,-999.0,-999,0.00,,,0.14,,2013-11-05 20:53:00,
2013-11-05 15:12:00,55.0,-99.9,-100.00,SE,135,8.0,-999.0,-999,0.00,,,0.14,,2013-11-05 21:12:00,
2013-11-05 15:22:00,55.0,-99.9,-100.00,SE,135,8.0,-999.0,-999,0.00,,,0.14,,2013-11-05 21:22:00,
2013-11-05 15:44:00,56.0,-99.9,-100.00,SE,143,5.0,-999.0,-999,0.00,,,0.14,,2013-11-05 21:44:00,
2013-11-05 15:54:00,56.0,-99.9,-100.00,SE,143,5.0,-999.0,-999,0.00,,,0.14,,2013-11-05 21:54:00,
2013-11-05 16:13:00,56.0,-99.9,-100.00,SSE,148,7.0,-999.0,-999,0.00,,,0.14,,2013-11-05 22:13:00,
2013-11-05 16:23:00,56.0,-99.9,-100.00,SSE,148,7.0,-999.0,-999,0.00,,,0.14,,2013-11-05 22:23:00,
2013-11-05 16:44:00,55.0,-99.9,-100.00,SSE,149,6.0,-999.0,-999,0.00,,,0.14,,2013-11-05 22:44:00,
2013-11-05 16:53:00,55.0,-99.9,-100.00,SSE,149,6.0,-999.0,-999,0.00,,,0.14,,2013-11-05 22:53:00,
2013-11-05 17:12:00,56.0,-99.9,-100.00,SSE,152,5.0,-999.0,-999,0.01,,,0.15,,2013-11-05 23:12:00,
2013-11-05 17:22:00,56.0,-99.9,-100.00,SSE,152,5.0,-999.0,-999,0.01,,,0.15,,2013-11-05 23:22:00,
2013-11-05 17:42:00,57.0,-99.9,-100.00,SE,140,7.0,-999.0,-999,0.01,,,0.15,,2013-11-05 23:42:00,
2013-11-05 17:54:00,57.0,-99.9,-100.00,SE,140,7.0,-999.0,-999,0.01,,,0.15,,2013-11-05 23:54:00,
2013-11-05 18:12:00,56.0,-99.9,-100.00,SE,136,8.0,-999.0,-999,0.00,,,0.15,,2013-11-06 00:12:00,
2013-11-05 18:22:00,56.0,-99.9,-100.00,SE,136,8.0,-999.0,-999,0.00,,,0.15,,2013-11-06 00:22:00,
2013-11-05 18:42:00,56.0,-99.9,-100.00,SSE,150,8.0,-999.0,-999,0.00,,,0.15,,2013-11-06 00:42:00,
2013-11-05 18:52:00,56.0,-99.9,-100.00,SSE,150,8.0,-999.0,-999,0.00,,,0.15,,2013-11-06 00:52:00,
2013-11-05 19:11:00,56.0,-99.9,-100.00,SE,146,7.0,-999.0,-999,0.00,,,0.15,,2013-11-06 01:11:00,
2013-11-05 19:22:00,56.0,-99.9,-100.00,SE,146,7.0,-999.0,-999,0.00,,,0.15,,2013-11-06 01:22:00,
2013-11-05 19:42:00,57.0,-99.9,-100.00,SE,144,8.0,-999.0,-999,0.00,,,0.15,,2013-11-06 01:42:00,
2013-11-05 19:52:00,57.0,-99.9,-100.00,SE,144,8.0,-999.0,-999,0.00,,,0.15,,2013-11-06 01:52:00,
2013-11-05 20:13:00,57.0,-99.9,-100.00,SE,144,9.0,-999.0,-999,0.00,,,0.15,,2013-11-06 02:13:00,
2013-11-05 20:23:00,57.0,-99.9,-100.00,SE,144,9.0,-999.0,-999,0.00,,,0.15,,2013-11-06 02:23:00,
2013-11-05 20:42:00,57.0,-99.9,-100.00,SE,138,10.0,-999.0,-999,0.02,,,0.17,,2013-11-06 02:42:00,
2013-11-05 20:52:00,57.0,-99.9,-100.00,SE,138,10.0,-999.0,-999,0.02,,,0.17,,2013-11-06 02:52:00,
2013-11-05 21:12:00,57.0,-99.9,-100.00,SE,142,10.0,-999.0,-999,0.03,,,0.18,,2013-11-06 03:12:00,
2013-11-05 21:22:00,57.0,-99.9,-100.00,SE,142,10.0,-999.0,-999,0.03,,,0.18,,2013-11-06 03:22:00,
2013-11-05 21:44:00,57.0,-99.9,-100.00,SE,129,10.0,-999.0,-999,0.03,,,0.20,,2013-11-06 03:44:00,
2013-11-05 21:55:00,57.0,-99.9,-100.00,SE,129,10.0,-999.0,-999,0.03,,,0.20,,2013-11-06 03:55:00,
2013-11-05 22:14:00,57.0,-99.9,-100.00,SE,139,8.0,-999.0,-999,0.02,,,0.20,,2013-11-06 04:14:00,
2013-11-05 22:24:00,57.0,-99.9,-100.00,SE,139,8.0,-999.0,-999,0.02,,,0.20,,2013-11-06 04:24:00,
2013-11-05 22:44:00,57.0,-99.9,-100.00,ESE,123,7.0,-999.0,-999,0.01,,,0.21,,2013-11-06 04:44:00,
2013-11-05 22:54:00,57.0,-99.9,-100.00,ESE,123,7.0,-999.0,-999,0.01,,,0.21,,2013-11-06 04:54:00,
2013-11-05 23:13:00,57.0,-99.9,-100.00,ESE,121,5.0,-999.0,-999,0.10,,,0.30,,2013-11-06 05:13:00,
2013-11-05 23:23:00,57.0,-99.9,-100.00,ESE,121,5.0,-999.0,-999,0.10,,,0.30,,2013-11-06 05:23:00,
2013-11-05 23:44:00,57.0,-99.9,-100.00,SE,140,6.0,-999.0,-999,0.14,,,0.35,,2013-11-06 05:44:00,
2013-11-05 23:54:00,57.0,-99.9,-100.00,SE,140,6.0,-999.0,-999,0.14,,,0.35,,2013-11-06 05:54:00,